San Carlos, CA

6:01 PM PST on February 20, 2017 (GMT -0800)
San Carlos

Weather History for KSQL - March, 2013

Change the Weather History Date:

Thursday, March 21, 2013

  Actual Average Record
Temperature  
Mean Temperature 54 °F -  
Max Temperature 62 °F 67 °F 83 °F (1965)
Min Temperature 46 °F 44 °F 33 °F (1955)
Degree Days  
Heating Degree Days 11    
Growing Degree Days 4 (Base 50)    
Moisture  
Dew Point 41 °F    
Average Humidity 67    
Maximum Humidity 82    
Minimum Humidity 39    
Precipitation  
Precipitation 0.00 in - - ()
Sea Level Pressure  
Sea Level Pressure 30.11 in    
Wind  
Wind Speed 8 mph (WNW)    
Max Wind Speed 14 mph    
Max Gust Speed -    
Visibility 10 miles    
Events      
Averages and records for this station are not official NWS values.
T = Trace of Precipitation, MM = Missing Value Source: NWS Daily Summary

Daily Weather History Graph

Daily Weather History Graph

Search for Another Location

Airport or City:

Trip Planner

Search our weather history database for the weather conditions in past years. The results will help you decide how hot, cold, wet, or windy it might be!

Date:

Astronomy

Mar. 21, 2013 Rise Set
Actual Time 7:10 AM PDT 7:22 PM PDT
Civil Twilight 6:44 AM PDT 7:48 PM PDT
Nautical Twilight 6:13 AM PDT 8:18 PM PDT
Astronomical Twilight 5:42 AM PDT 8:49 PM PDT
Moon 2:02 PM PDT 3:30 AM PDT
Length of Visible Light 13h 03m
Length of Day
12h 11m
Waxing Gibbous, 69% of the Moon is Illuminated
Mar 21
Waxing Gibbous
Mar 27
Full
Apr 2
Last Quarter
Apr 10
New
Apr 18
First Quarter

Hourly Weather History & Observations

Time (PDT) Temp. Windchill Dew Point Humidity Pressure Visibility Wind Dir Wind Speed Gust Speed Precip Events Conditions
12:10 AM 53.6 °F - 48.2 °F 82% 30.16 in 10.0 mi NW 10.4 mph - N/A   Overcast
12:30 AM 53.6 °F - 46.4 °F 77% 30.16 in 10.0 mi NW 8.1 mph - N/A   Overcast
12:50 AM 53.6 °F - 46.4 °F 77% 30.16 in 10.0 mi NW 8.1 mph - N/A   Overcast
1:10 AM 53.6 °F - 44.6 °F 72% 30.16 in 10.0 mi WNW 11.5 mph - N/A   Overcast
1:30 AM 51.8 °F - 44.6 °F 76% 30.16 in 10.0 mi WNW 12.7 mph - N/A   Overcast
1:50 AM 50.0 °F - 42.8 °F 76% 30.16 in 10.0 mi WNW 12.7 mph - N/A   Mostly Cloudy
2:10 AM 50.0 °F - 42.8 °F 76% 30.16 in 10.0 mi West 6.9 mph - N/A   Scattered Clouds
2:30 AM 50.0 °F - 41.0 °F 71% 30.16 in 10.0 mi West 8.1 mph - N/A   Clear
2:55 AM 48.2 °F - 41.0 °F 76% 30.15 in 10.0 mi West 6.9 mph - N/A   Clear
3:10 AM 48.2 °F - 41.0 °F 76% 30.15 in 10.0 mi West 5.8 mph - N/A   Clear
3:30 AM 48.2 °F - 39.2 °F 71% 30.15 in 10.0 mi West 10.4 mph - N/A   Clear
3:50 AM 48.2 °F - 41.0 °F 76% 30.15 in 10.0 mi West 9.2 mph - N/A   Clear
4:10 AM 48.2 °F - 41.0 °F 76% 30.15 in 10.0 mi West 4.6 mph - N/A   Mostly Cloudy
4:30 AM 48.2 °F - 41.0 °F 76% 30.15 in 10.0 mi West 6.9 mph - N/A   Overcast
4:50 AM 48.2 °F - 41.0 °F 76% 30.15 in 10.0 mi West 3.5 mph - N/A   Overcast
5:10 AM 48.2 °F - 41.0 °F 76% 30.14 in 10.0 mi WNW 8.1 mph - N/A   Overcast
5:30 AM 48.2 °F - 41.0 °F 76% 30.13 in 10.0 mi WNW 6.9 mph - N/A   Overcast
5:50 AM 48.2 °F - 41.0 °F 76% 30.13 in 10.0 mi WNW 5.8 mph - N/A   Overcast
6:10 AM 48.2 °F - 41.0 °F 76% 30.12 in 10.0 mi West 4.6 mph - N/A   Scattered Clouds
6:30 AM 46.4 °F 45.2 °F 41.0 °F 81% 30.12 in 10.0 mi West 3.5 mph - N/A   Scattered Clouds
6:50 AM 46.4 °F 44.3 °F 41.0 °F 81% 30.13 in 10.0 mi WNW 4.6 mph - N/A   Mostly Cloudy
7:55 AM 46.4 °F 43.5 °F 41.0 °F 81% 30.14 in 10.0 mi West 5.8 mph - N/A   Mostly Cloudy
8:48 AM 48.2 °F - 39.2 °F 71% 30.14 in 10.0 mi West 4.6 mph - N/A   Mostly Cloudy
9:56 AM 50.0 °F - 41.0 °F 71% 30.14 in 10.0 mi NNE 4.6 mph - N/A   Scattered Clouds
10:50 AM 53.6 °F - 41.0 °F 62% 30.14 in 10.0 mi NNW 5.8 mph - N/A   Scattered Clouds
11:47 AM 55.4 °F - 39.2 °F 54% 30.14 in 10.0 mi NNW 4.6 mph - N/A   Partly Cloudy
12:51 PM 57.2 °F - 41.0 °F 55% 30.12 in 10.0 mi WNW 6.9 mph - N/A   Partly Cloudy
1:51 PM 60.8 °F - 41.0 °F 48% 30.11 in 10.0 mi WNW 6.9 mph - N/A   Partly Cloudy
2:47 PM 62.6 °F - 41.0 °F 45% 30.08 in 10.0 mi NW 8.1 mph - N/A   Clear
3:56 PM 62.6 °F - 37.4 °F 39% 30.06 in 10.0 mi NW 8.1 mph - N/A   Clear
5:49 PM 60.8 °F - 39.2 °F 45% 30.04 in 10.0 mi WNW 12.7 mph - N/A   Clear
6:48 PM 57.2 °F - 39.2 °F 51% 30.04 in 10.0 mi WNW 13.8 mph - N/A   Clear
7:50 PM 53.6 °F - 39.2 °F 58% 30.04 in 10.0 mi WNW 12.7 mph - N/A   Clear
8:47 PM 53.6 °F - 39.2 °F 58% 30.05 in 10.0 mi West 9.2 mph - N/A   Clear
9:10 PM 53.6 °F - 39.2 °F 58% 30.05 in 10.0 mi WNW 10.4 mph - N/A   Clear
9:30 PM 53.6 °F - 39.2 °F 58% 30.06 in 10.0 mi WNW 6.9 mph - N/A   Clear
9:50 PM 53.6 °F - 39.2 °F 58% 30.07 in 10.0 mi West 3.5 mph - N/A   Clear
10:10 PM 51.8 °F - 41.0 °F 67% 30.07 in 10.0 mi NW 3.5 mph - N/A   Clear
10:30 PM 51.8 °F - 39.2 °F 62% 30.07 in 10.0 mi WNW 4.6 mph - N/A   Clear
10:50 PM 51.8 °F - 39.2 °F 62% 30.07 in 10.0 mi WNW 4.6 mph - N/A   Clear
11:10 PM 51.8 °F - 39.2 °F 62% 30.07 in 10.0 mi NW 6.9 mph - N/A   Clear
11:35 PM 51.8 °F - 39.2 °F 62% 30.07 in 10.0 mi Calm Calm - N/A   Clear
11:50 PM 50.0 °F - 39.2 °F 66% 30.07 in 10.0 mi Calm Calm - N/A   Clear